Date String (YYYY-MM-DD hh:mm:ss) UTC,Instrument flags,Ambient pressure (hPa),Sample flow (lpm),Bypass flow (lpm),Sample temperature (°C),Ambient temperature (°C),ASC tube jacket temperature (°C),LED temperature (°C),Box temperature (°C),Sample RH (%),Span deviation,Mass concentration (μg/m³),Mass concentration (μg/m³),Mass concentration (μg/m³)
DateTimeUTC,F1_M11,P_M11,Q1_M11,Q2_M11,T1_M11,T2_M11,T3_M11,T4_M11,T5_M11,U1_M11,ZSPAN_M11,X0_M11,X2_M11,X1_M11
2023-01-10 15:00:00,,0817.5,4.99,0.00,22.4,21.1,00.0,31.2,24.1,14.5,0000.0,0002.85,0001.10,0000.79
2023-01-10 15:01:00,,0817.5,5.00,0.00,22.4,21.1,00.0,31.2,24.2,14.7,0000.0,0002.73,0001.09,0000.78
2023-01-10 15:02:00,,0817.6,5.00,0.00,22.4,21.1,00.0,31.2,24.1,14.7,0000.0,0002.18,0001.10,0000.77
2023-01-10 15:03:00,,0817.6,5.00,0.00,22.4,21.1,00.0,31.2,24.1,14.6,0000.0,0002.15,0001.07,0000.76
2023-01-10 15:04:00,,0817.5,5.00,0.00,22.4,21.0,00.0,31.2,24.1,14.6,0000.0,0002.12,0001.06,0000.75
2023-01-10 15:05:00,,0817.6,5.01,0.00,22.4,21.0,00.0,31.2,24.1,14.6,0000.0,0002.09,0001.04,0000.74
2023-01-10 15:06:00,,0817.6,5.01,0.00,22.4,21.0,00.0,31.2,24.0,14.5,0000.0,0001.76,0001.04,0000.73
2023-01-10 15:07:00,,0817.5,5.00,0.00,22.4,21.0,00.0,31.2,24.0,15.5,0000.0,0001.56,0000.97,0000.70
2023-01-10 15:08:00,,0817.6,4.99,0.00,22.3,21.0,00.0,31.2,24.0,15.8,0000.0,0001.50,0000.93,0000.66
2023-01-10 15:09:00,,0817.5,4.99,0.00,22.3,21.0,00.0,31.2,24.1,15.5,0000.0,0001.57,0000.91,0000.64
2023-01-10 15:10:00,,0817.4,5.00,0.00,22.4,21.1,00.0,31.2,24.1,15.3,0000.0,0001.53,0000.89,0000.63
2023-01-10 15:11:00,,0817.2,5.01,0.00,22.4,21.1,00.0,31.2,24.1,14.9,0000.0,0001.54,0000.88,0000.62
2023-01-10 15:12:00,,0817.3,5.01,0.00,22.4,21.1,00.0,31.2,24.2,14.7,0000.0,0001.51,0000.87,0000.62
2023-01-10 15:13:00,,0817.5,5.00,0.00,22.4,21.1,00.0,31.2,24.2,14.7,0000.0,0001.42,0000.84,0000.63
2023-01-10 15:14:00,,0817.6,4.99,0.00,22.4,21.1,00.0,31.2,24.2,15.0,0000.0,0001.38,0000.82,0000.62
2023-01-10 15:15:00,,0817.6,5.00,0.00,22.4,21.2,00.0,31.2,24.2,15.0,0000.0,0001.40,0000.83,0000.62
2023-01-10 15:16:00,,0817.7,5.00,0.00,22.4,21.1,00.0,31.2,24.1,15.0,0000.0,0001.40,0000.81,0000.61
2023-01-10 15:17:00,,0817.8,5.00,0.00,22.4,21.1,00.0,31.2,24.1,14.9,0000.0,0001.44,0000.79,0000.60
2023-01-10 15:18:00,,0817.7,5.00,0.00,22.4,21.1,00.0,31.2,24.1,14.7,0000.0,0001.54,0000.82,0000.61
2023-01-10 15:19:00,,0817.6,5.00,0.00,22.4,21.2,00.0,31.2,24.2,14.6,0000.0,0001.77,0000.91,0000.63
2023-01-10 15:20:00,,0817.5,5.00,0.00,22.4,21.2,00.0,31.2,24.2,14.6,0000.0,0001.96,0000.96,0000.64
2023-01-10 15:21:00,,0817.5,5.00,0.00,22.4,21.2,00.0,31.2,24.2,14.9,0000.0,0002.02,0000.99,0000.64
2023-01-10 15:22:00,,0817.5,5.00,0.00,22.4,21.2,00.0,31.3,24.3,14.7,0000.0,0002.04,0000.99,0000.64
2023-01-10 15:23:00,,0817.6,5.01,0.00,22.4,21.2,00.0,31.3,24.3,14.8,0000.0,0002.13,0001.03,0000.64
2023-01-10 15:24:00,,0817.5,5.00,0.00,22.5,21.3,00.0,31.3,24.3,14.8,0000.0,0002.59,0001.06,0000.63
2023-01-10 15:25:00,,0817.5,5.00,0.00,22.5,21.3,00.0,31.3,24.3,14.9,0000.0,0002.77,0001.07,0000.63
2023-01-10 15:26:00,,0817.4,5.00,0.00,22.5,21.3,00.0,31.3,24.3,15.1,0000.0,0002.83,0001.09,0000.63
2023-01-10 15:27:00,,0817.4,5.00,0.00,22.5,21.3,00.0,31.3,24.2,15.4,0000.0,0002.82,0001.08,0000.63
2023-01-10 15:28:00,,0817.4,5.00,0.00,22.5,21.3,00.0,31.3,24.2,15.4,0000.0,0002.74,0001.07,0000.62
2023-01-10 15:29:00,,0817.2,5.02,0.00,22.5,21.3,00.0,31.3,24.2,15.2,0000.0,0003.29,0001.06,0000.61
2023-01-10 15:30:00,,0817.1,5.02,0.00,22.5,21.3,00.0,31.3,24.3,15.1,0000.0,0003.21,0001.04,0000.60
2023-01-10 15:31:00,,0817.0,5.00,0.00,22.5,21.4,00.0,31.3,24.3,15.0,0000.0,0003.07,0001.02,0000.60
2023-01-10 15:32:00,,0817.1,4.99,0.00,22.6,21.4,00.0,31.3,24.3,15.0,0000.0,0003.03,0001.00,0000.60
2023-01-10 15:33:00,,0817.1,5.00,0.00,22.6,21.4,00.0,31.3,24.4,15.2,0000.0,0002.91,0000.96,0000.60
2023-01-10 15:34:00,,0817.0,5.00,0.00,22.6,21.4,00.0,31.3,24.4,16.0,0000.0,0002.85,0000.91,0000.58
2023-01-10 15:35:00,,0817.0,5.01,0.00,22.6,21.4,00.0,31.3,24.4,16.1,0000.0,0002.50,0000.86,0000.55
2023-01-10 15:36:00,,0816.9,5.00,0.00,22.6,21.4,00.0,31.4,24.4,15.9,0000.0,0002.18,0000.81,0000.53
2023-01-10 15:37:00,,0816.9,5.01,0.00,22.6,21.4,00.0,31.4,24.4,15.1,0000.0,0002.14,0000.79,0000.52
2023-01-10 15:38:00,,0817.0,4.99,0.00,22.6,21.5,00.0,31.4,24.4,15.0,0000.0,0002.24,0000.82,0000.54
2023-01-10 15:39:00,,0817.0,5.00,0.00,22.6,21.5,00.0,31.4,24.4,15.5,0000.0,0002.29,0000.84,0000.56
2023-01-10 15:40:00,,0817.0,5.02,0.00,22.7,21.5,00.0,31.4,24.4,15.4,0000.0,0001.85,0000.87,0000.57
2023-01-10 15:41:00,,0817.0,5.01,0.00,22.7,21.5,00.0,31.4,24.4,15.1,0000.0,0001.68,0000.87,0000.58
2023-01-10 15:42:00,,0817.0,5.00,0.00,22.7,21.6,00.0,31.4,24.4,15.2,0000.0,0001.67,0000.87,0000.59
2023-01-10 15:43:00,,0817.0,5.00,0.00,22.7,21.6,00.0,31.4,24.4,15.3,0000.0,0001.69,0000.89,0000.61
2023-01-10 15:44:00,,0817.0,5.00,0.00,22.7,21.6,00.0,31.4,24.5,15.4,0000.0,0001.84,0000.97,0000.66
2023-01-10 15:45:00,,0817.0,4.99,0.00,22.7,21.7,00.0,31.5,24.5,15.1,0000.0,0001.85,0001.01,0000.70
2023-01-10 15:46:00,,0817.0,5.00,0.00,22.7,21.7,00.0,31.5,24.5,15.0,0000.0,0001.83,0001.06,0000.76
2023-01-10 15:47:00,,0817.0,5.01,0.00,22.8,21.7,00.0,31.5,24.6,14.8,0000.0,0002.45,0001.14,0000.83
2023-01-10 15:48:00,,0817.0,5.01,0.00,22.8,21.7,00.0,31.5,24.6,14.8,0000.0,0002.91,0001.21,0000.89
2023-01-10 15:49:00,,0817.0,5.01,0.00,22.8,21.7,00.0,31.5,24.6,15.1,0000.0,0002.85,0001.25,0000.95
2023-01-10 15:50:00,,0817.2,4.99,0.00,22.8,21.8,00.0,31.5,24.6,15.3,0000.0,0003.02,0001.33,0001.03
2023-01-10 15:51:00,,0817.1,5.00,0.00,22.8,21.8,00.0,31.6,24.6,15.3,0000.0,0003.95,0001.48,0001.11
2023-01-10 15:52:00,,0817.1,5.00,0.00,22.9,21.8,00.0,31.6,24.6,14.8,0000.0,0004.25,0001.57,0001.18
2023-01-10 15:53:00,,0816.9,5.01,0.00,22.9,21.8,00.0,31.6,24.7,14.8,0000.0,0004.38,0001.68,0001.28
2023-01-10 15:54:00,,0817.0,4.99,0.00,22.9,21.8,00.0,31.6,24.7,14.7,0000.0,0004.48,0001.81,0001.38
2023-01-10 15:55:00,,0817.1,5.00,0.00,22.9,21.8,00.0,31.6,24.7,15.3,0000.0,0004.61,0001.95,0001.51
2023-01-10 15:56:00,,0817.2,5.00,0.00,22.9,21.8,00.0,31.6,24.7,14.8,0000.0,0004.93,0002.18,0001.72
2023-01-10 15:57:00,,0817.1,4.99,0.00,22.9,21.8,00.0,31.6,24.7,14.4,0000.0,0005.27,0002.43,0001.95
2023-01-10 15:58:00,,0817.1,5.00,0.00,22.9,21.8,00.0,31.7,24.8,14.4,0000.0,0007.02,0002.63,0002.09
2023-01-10 15:59:00,,0817.3,4.99,0.00,22.9,21.8,00.0,31.7,24.8,14.2,0000.0,0006.92,0002.82,0002.29
